Location: Newark
(41.6500°N, 71.4833°W)
Time: 01:47:05
(UTC+00:00)

A-11 Canister half - Pass Details

Date: 29 January 2020
Orbit: 1517 x 1683 km, 47.2° (Epoch: 19 February)

Event Time Altitude Azimuth Distance (km) Brightness Sun altitude
Rises 11:26:50 0° 291° (WNW) 4,663 - -6.8°
Exits shadow 11:29:34 - 281° (W) 3,980 10.5 -6.4°
Reaches altitude 10° 11:30:56 10° 275° (W) 3,682 10.4 -6.1°
Maximum altitude 11:36:55 19° 234° (SW) 3,015 10.3 -5.1°
Drops below altitude 10° 11:43:00 10° 192° (SSW) 3,719 11.1 -4.0°
Sets 11:47:13 0° 176° (S) 4,725 11.9 -3.3°
